DW3006 Weather Reports


Display with metric or nautical units.
time (UTC)temp
F
wind
direction
speed
MPH
gust
MPH
rain 1hr
in
rain 24hr
in
rain mn
in
humidity
%
barometer
mb
20171216164345 48 165 11.0 0.0 0.00 0.00 0.00 72 1020.0
20171216162817 47 161 12.0 0.0 0.00 0.00 0.00 73 1020.2
20171216161305 46 168 12.0 0.0 0.00 0.00 0.00 75 1020.4
20171216155831 45 157 11.0 0.0 0.00 0.00 0.00 77 1020.5
20171216154313 43 160 10.0 0.0 0.00 0.00 0.00 79 1020.3
20171216152828 41 151 9.0 0.0 0.00 0.00 0.00 81 1020.2
20171216151344 40 183 8.0 0.0 0.00 0.00 0.00 82 1020.3
20171216145800 38 159 7.0 0.0 0.00 0.00 0.00 83 1020.4
20171216144239 37 159 7.0 0.0 0.00 0.00 0.00 84 1020.3
20171216142750 36 167 5.0 0.0 0.00 0.00 0.00 84 1020.2
20171216141245 35 169 2.0 0.0 0.00 0.00 0.00 85 1020.2
20171216135733 34 170 2.0 0.0 0.00 0.00 0.00 84 1020.1
20171216134318 33 162 2.0 0.0 0.00 0.00 0.00 84 1020.0
20171216132830 33 153 4.0 0.0 0.00 0.00 0.00 84 1020.0
20171216131248 33 146 6.0 0.0 0.00 0.00 0.00 84 1019.9
20171216125733 33 147 7.0 0.0 0.00 0.00 0.00 83 1019.7
20171216124247 34 158 7.0 0.0 0.00 0.00 0.00 83 1019.4
20171216122757 34 149 8.0 0.0 0.00 0.00 0.00 82 1019.3
20171216121310 34 147 9.0 0.0 0.00 0.00 0.00 82 1018.9
20171216115752 35 153 10.0 0.0 0.00 0.00 0.00 82 1018.8
20171216114220 35 145 8.0 0.0 0.00 0.00 0.00 82 1018.5
20171216112747 35 154 9.0 0.0 0.00 0.00 0.00 82 1018.5
20171216111234 35 156 9.0 0.0 0.00 0.00 0.00 82 1018.5
20171216105731 35 152 10.0 0.0 0.00 0.00 0.00 82 1018.4
20171216104227 35 157 9.0 0.0 0.00 0.00 0.00 82 1018.5
20171216102712 35 153 7.0 0.0 0.00 0.00 0.00 81 1018.6
20171216101219 35 140 7.0 0.0 0.00 0.00 0.00 81 1018.8
20171216095711 35 146 7.0 0.0 0.00 0.00 0.00 82 1018.8
20171216094210 34 144 7.0 0.0 0.00 0.00 0.00 81 1019.0
20171216092712 35 138 7.0 0.0 0.00 0.00 0.00 81 1019.2
20171216091226 35 145 7.0 0.0 0.00 0.00 0.00 81 1019.3
20171216085715 35 149 7.0 0.0 0.00 0.00 0.00 81 1019.4
20171216084241 35 143 7.0 0.0 0.00 0.00 0.00 80 1019.6
20171216082746 35 160 7.0 0.0 0.00 0.00 0.00 80 1019.6
20171216081159 35 153 6.0 0.0 0.00 0.00 0.00 80 1019.6
20171216075702 35 144 7.0 0.0 0.00 0.00 0.00 80 1019.4
20171216074157 36 154 7.0 0.0 0.00 0.00 0.00 79 1019.5
20171216072738 36 148 9.0 0.0 0.00 0.00 0.00 79 1019.4
20171216071157 36 147 8.0 0.0 0.00 0.00 0.00 79 1019.4
20171216065701 36 148 8.0 0.0 0.00 0.00 0.00 78 1019.4
20171216064145 37 152 7.0 0.0 0.00 0.00 0.00 77 1019.4
20171216062747 36 152 7.0 0.0 0.00 0.00 0.00 77 1019.3
20171216061216 37 148 7.0 0.0 0.00 0.00 0.00 77 1019.3
20171216055651 37 139 7.0 0.0 0.00 0.00 0.00 77 1019.4
20171216054144 37 156 7.0 0.0 0.00 0.00 0.00 76 1019.3
20171216052709 37 153 8.0 0.0 0.00 0.00 0.00 76 1019.4
20171216051149 38 142 8.0 0.0 0.00 0.00 0.00 76 1019.5
20171216045815 38 140 8.0 0.0 0.00 0.00 0.00 76 1019.5
20171216044156 38 149 8.0 0.0 0.00 0.00 0.00 75 1019.6
20171216042640 38 154 7.0 0.0 0.00 0.00 0.00 75 1019.3
20171216041138 38 153 8.0 0.0 0.00 0.00 0.00 75 1019.0
20171216035630 38 150 8.0 0.0 0.00 0.00 0.00 75 1019.1
20171216034201 38 145 9.0 0.0 0.00 0.00 0.00 74 1019.0
20171216032808 39 150 10.0 0.0 0.00 0.00 0.00 74 1019.1
20171216031606 39 158 8.0 0.0 0.00 0.00 0.00 74 1019.0
20171216025708 39 164 7.0 0.0 0.00 0.00 0.00 73 1019.0
20171216024254 39 157 7.0 0.0 0.00 0.00 0.00 73 1019.0
20171216022708 39 152 8.0 0.0 0.00 0.00 0.00 72 1019.0
20171216021135 40 153 8.0 0.0 0.00 0.00 0.00 72 1019.2
20171216015637 40 147 8.0 0.0 0.00 0.00 0.00 72 1019.2
20171216014130 40 143 7.0 0.0 0.00 0.00 0.00 71 1019.2
20171216012632 40 146 7.0 0.0 0.00 0.00 0.00 71 1019.0
20171216011122 41 150 7.0 0.0 0.00 0.00 0.00 70 1018.9
20171216005658 41 146 7.0 0.0 0.00 0.00 0.00 70 1018.8
20171216004136 41 153 8.0 0.0 0.00 0.00 0.00 70 1018.9
20171216002621 42 146 7.0 0.0 0.00 0.00 0.00 69 1018.8
20171216001143 42 146 7.0 0.0 0.00 0.00 0.00 68 1018.6
20171215235718 42 153 6.0 0.0 0.00 0.00 0.00 67 1018.4
20171215234137 43 144 6.0 0.0 0.00 0.00 0.00 67 1018.2
20171215232702 43 146 6.0 0.0 0.00 0.00 0.00 67 1017.9
20171215231120 44 150 6.0 0.0 0.00 0.00 0.00 66 1017.9
20171215225708 45 149 7.0 0.0 0.00 0.00 0.00 65 1017.9
20171215224117 46 155 7.0 0.0 0.00 0.00 0.00 64 1018.1
20171215222631 47 148 7.0 0.0 0.00 0.00 0.00 63 1018.2
20171215221116 47 165 8.0 0.0 0.00 0.00 0.00 63 1018.4
20171215215700 48 161 9.0 0.0 0.00 0.00 0.00 62 1018.2
20171215214211 48 172 10.0 0.0 0.00 0.00 0.00 61 1018.2
20171215212615 49 190 9.0 0.0 0.00 0.00 0.00 61 1018.1
20171215211231 49 179 10.0 0.0 0.00 0.00 0.00 62 1018.0
20171215205619 49 157 10.0 0.0 0.00 0.00 0.00 61 1018.1
20171215204111 49 163 8.0 0.0 0.00 0.00 0.00 62 1018.2
20171215202641 49 144 10.0 0.0 0.00 0.00 0.00 63 1018.3
20171215201132 49 146 8.0 0.0 0.00 0.00 0.00 64 1018.4
20171215195623 48 180 9.0 0.0 0.00 0.00 0.00 64 1018.3
20171215194105 48 182 8.0 0.0 0.00 0.00 0.00 66 1018.5
20171215192639 47 173 9.0 0.0 0.00 0.00 0.00 66 1018.5
20171215191103 47 202 8.0 0.0 0.00 0.00 0.00 68 1018.7
20171215185622 47 192 9.0 0.0 0.00 0.00 0.00 69 1018.7
20171215184102 46 184 10.0 0.0 0.00 0.00 0.00 69 1018.7
20171215182656 46 193 9.0 0.0 0.00 0.00 0.00 70 1019.2
20171215181202 45 198 8.0 0.0 0.00 0.00 0.00 71 1019.5
20171215175559 45 183 7.0 0.0 0.00 0.00 0.00 74 1019.5
20171215174047 44 188 6.0 0.0 0.00 0.00 0.00 75 1019.9
20171215172633 43 203 6.0 0.0 0.00 0.00 0.00 76 1020.2
20171215171100 42 166 6.0 0.0 0.00 0.00 0.00 78 1020.8